SCP
0 0 0 0 0 0 0 0 0 0 0 0 0 0 0 0 0 0 0 0 0 0 0 0 0 0 0 0 0 0 0 -0 -0 -0 -0 -0 -0 0 0 0 0 0 0 0 0 0 0 0 0
0 0 0 0 0 0 0 0 0 0 0 0 0 0 0 0 0 0 0 0 0 -0 1 1 1 0 0 0 0 0 0 0 0 0 0 0 0 0 0 0 0 0 0 0 0 0 0 0 0
0 0 0 0 0 0 0 0 0 0 0 0 0 0 0 0 0 0 0 0 0 0 0 1 1 1 1 0 0 0 0 0 0 0 0 0 0 0 0 0 0 0 0 0 0 0 0 0 0
0 0 0 0 0 0 0 0 0 0 0 0 0 0 0 0 0 0 0 0 0 0 0 1 1 1 1 1 0 0 0 0 0 0 0 0 0 0 0 0 0 0 0 0 0 0 0 0 0
0 0 0 0 0 0 0 0 0 0 0 0 0 0 0 0 0 0 0 0 0 0 0 0 0 1 1 1 1 0 0 0 0 0 0 0 0 0 0 0 0 0 0 0 0 0 0 0 0
0 0 0 0 0 0 0 0 0 0 0 0 0 0 0 0 0 0 0 0 0 0 1 1 0 0 1 1 1 1 1 0 0 0 0 0 0 0 0 0 0 0 0 0 0 0 0 0 0
0 0 0 0 0 0 0 0 0 0 0 0 0 0 0 0 0 0 0 0 0 0 0 1 0 0 0 1 1 1 1 1 0 0 0 0 0 0 0 0 0 0 0 0 0 0 0 0 0
0 0 0 0 0 0 0 0 0 0 0 0 0 0 0 0 0 0 0 0 0 0 0 0 0 0 0 1 1 1 1 1 1 0 0 0 0 0 0 0 0 0 0 0 0 0 0 0 0
0 0 0 0 0 0 0 0 0 0 0 0 0 0 0 0 0 0 0 0 0 0 0 0 0 0 0 0 1 0 1 1 1 0 0 0 0 0 0 0 0 0 0 0 0 0 0 0 0
0 0 0 0 0 0 0 0 0 0 0 0 0 0 0 0 0 0 0 0 0 0 0 0 0 0 0 0 0 0 1 1 1 1 0 1 0 0 0 0 0 0 0 0 0 0 0 0 0
0 0 0 0 0 0 0 0 0 0 0 0 0 0 0 0 0 0 0 0 0 0 0 0 0 0 0 0 0 1 1 1 2 1 1 0 0 0 0 0 0 0 0 0 0 0 0 0 0
0 0 0 0 0 0 0 0 0 0 0 0 0 0 0 0 0 0 0 0 0 0 0 0 0 0 0 0 0 0 1 1 1 1 1 1 0 0 0 0 0 0 0 0 0 0 0 0 0
0 0 0 0 0 0 0 0 0 0 0 0 0 0 0 0 0 0 0 0 0 0 -0 0 0 0 0 0 0 0 0 1 1 1 1 1 0 0 0 0 0 0 0 0 0 0 0 0 0
0 0 0 0 0 0 0 0 0 0 0 0 0 0 0 0 0 0 -0 0 0 0 0 0 0 0 0 0 0 0 0 1 2 2 1 1 0 0 0 0 0 0 0 0 0 0 0 0 0
0 0 0 -0 0 -0 0 0 0 0 0 0 0 0 0 0 0 0 0 0 0 0 0 0 0 0 0 0 0 0 0 0 0 1 1 1 0 0 0 0 0 0 0 0 0 0 0 0 0
0 0 0 0 -0 -0 0 0 0 0 0 0 0 0 0 0 0 0 0 0 0 0 0 0 -0 0 0 0 0 0 0 0 0 1 1 1 0 0 0 0 0 0 0 0 0 0 0 0 0
0 0 0 0 0 0 0 0 0 0 0 0 0 0 0 0 0 0 0 0 0 0 0 0 0 -0 0 0 0 0 0 0 0 1 1 0 0 0 0 0 0 0 0 0 0 0 0 0 0
0 0 0 0 0 0 0 0 0 0 0 0 0 0 0 0 0 0 0 0 0 0 0 0 0 0 -0 0 0 0 0 0 0 0 0 1 0 0 0 0 0 0 0 0 0 0 0 0 0
0 0 0 0 0 0 0 0 0 0 0 0 0 0 0 0 0 0 0 0 0 0 0 0 0 0 -0 -0 0 0 0 0 0 0 0 0 1 0 0 0 0 0 0 0 0 0 0 0 0
0 0 0 0 0 0 0 0 0 0 0 0 0 0 0 0 0 0 0 0 0 0 0 0 0 0 0 -0 0 0 0 0 0 0 0 0 0 0 0 0 0 0 0 0 0 0 0 0 0
0 0 0 0 0 0 0 0 0 0 0 0 0 -0 -0 -0 0 0 0 0 0 0 0 0 0 0 0 -0 -0 0 0 0 0 0 1 0 0 0 0 0 0 0 0 0 0 0 0 0 0
0 0 0 0 0 0 0 0 0 0 0 0 0 -0 -0 -0 -0 0 0 0 0 0 0 0 0 0 0 0 -0 0 0 0 0 0 0 0 0 0 0 0 0 0 0 0 0 0 0 0 0
0 0 0 0 0 0 0 0 0 0 0 0 -0 -0 -0 -0 0 0 0 0 0 0 0 0 0 0 0 0 0 0 0 0 0 0 0 0 0 0 0 0 0 0 0 0 0 0 0 0 0
0 0 0 0 0 0 0 0 0 0 0 0 -0 -0 0 0 0 0 0 0 0 0 0 0 0 0 0 0 -0 0 0 0 0 0 0 0 1 0 0 0 0 0 0 0 0 0 0 0 0
0 -0 -0 0 0 0 0 0 0 0 0 0 -0 0 0 0 0 0 0 0 0 0 0 0 0 0 0 0 0 -0 0 0 0 0 0 0 0 0 0 0 0 0 0 0 0 0 0 0 0
0 -0 0 0 0 0 0 0 0 0 0 0 0 0 0 0 0 0 0 0 0 0 0 0 0 0 0 0 0 0 0 0 0 0 0 0 0 0 0 0 0 0 0 0 0 0 0 0 0
0 0 0 0 0 0 0 0 0 0 0 0 0 0 0 0 -0 0 0 0 0 0 0 0 0 0 0 0 0 0 0 0 0 0 0 0 0 0 0 0 0 0 0 0 0 0 0 0 0
0 0 0 0 0 0 0 0 0 0 -0 0 -0 0 0 -0 -0 -0 0 0 0 0 0 0 0 0 0 0 0 0 0 0 0 0 0 0 0 0 0 0 0 0 0 0 0 0 0 0 0
0 -0 0 0 0 0 0 0 0 0 0 0 0 0 -0 -0 -0 -0 -0 -0 0 0 0 0 0 0 0 0 0 0 0 0 0 0 0 0 0 0 0 0 0 0 0 0 0 0 0 0 0
0 0 0 0 0 0 0 0 0 0 0 0 0 -0 -0 0 -0 -0 -0 -0 0 0 0 0 0 0 0 0 0 0 0 0 0 0 0 0 0 0 0 0 0 0 0 0 0 0 0 0 0
Wind_Speed_500mb
4 11 20 18 7 5 7 13 2 3 3 5 23 9 8 6 6 5 26 8 14 25 44 55 54 51 50 50 49 47 46 43 42 41 40 37 36 36 38 38 34 24 21 22 33 33 32 35 31
7 20 20 8 8 6 10 6 12 9 8 27 16 7 5 8 11 12 6 8 19 22 36 53 56 54 53 52 50 49 48 45 42 40 39 37 39 37 39 36 30 26 25 28 30 32 33 36 34
14 25 10 7 6 11 10 4 6 17 23 10 9 2 4 6 10 22 31 24 15 26 39 51 55 55 54 54 52 50 49 47 44 41 37 36 36 41 38 33 26 24 20 29 34 34 31 39 40
13 9 9 7 14 11 9 3 13 14 4 20 15 11 4 23 5 26 34 25 16 24 37 52 57 56 55 56 54 52 50 47 44 42 39 36 36 36 35 33 32 30 28 25 26 31 34 36 41
14 7 6 3 9 10 5 5 8 4 7 13 17 12 18 7 18 19 21 15 17 24 35 50 59 57 57 58 57 55 52 49 47 44 41 39 39 36 38 41 42 33 24 23 27 24 27 40 38
6 6 5 8 10 7 2 16 5 8 6 20 9 21 13 9 13 23 22 17 18 23 29 42 58 61 58 57 57 57 55 52 50 47 44 42 41 40 41 44 43 38 31 31 29 31 24 34 35
8 6 7 5 5 6 1 18 4 9 11 8 30 9 12 20 26 45 33 23 21 23 28 37 52 62 62 61 59 58 58 56 53 50 47 45 44 43 43 44 44 43 44 40 35 37 31 37 36
5 6 4 5 5 6 7 20 17 13 10 30 6 10 12 26 64 58 46 37 23 16 16 36 45 61 66 67 65 62 60 59 57 54 54 49 46 44 44 41 41 43 39 38 42 39 40 39 37
4 6 2 4 6 6 11 13 13 14 33 33 24 45 61 71 66 67 61 47 36 21 18 17 33 45 61 71 72 68 65 63 61 58 57 53 50 46 46 43 42 41 35 42 44 43 49 46 39
9 4 6 4 2 5 19 14 26 14 24 40 56 56 47 57 60 58 62 59 59 45 27 22 29 34 48 61 71 75 71 70 69 68 64 62 58 52 50 47 46 41 35 44 46 45 46 47 41
6 6 1 4 4 7 15 21 10 11 22 35 37 56 63 62 52 51 49 51 57 57 50 34 32 37 47 49 65 75 78 76 76 75 73 70 63 57 55 55 52 44 39 40 42 44 48 45 44
5 4 5 11 8 17 13 27 18 41 39 59 64 63 58 49 48 46 50 51 53 60 55 48 38 38 43 50 37 73 81 84 85 83 80 80 72 67 64 65 60 54 48 42 38 44 44 43 43
3 7 11 29 54 40 31 40 24 48 62 42 43 41 48 50 51 50 47 51 53 58 51 51 48 41 41 45 58 41 79 89 90 88 86 85 80 76 72 70 67 60 54 46 41 41 41 43 44
8 22 35 24 26 19 13 17 4 21 40 30 36 44 52 60 63 68 68 70 60 51 53 45 45 51 50 36 42 56 36 102 92 94 93 91 88 82 77 74 71 67 60 52 44 39 39 41 42
7 10 12 5 6 10 12 18 14 31 39 47 41 69 71 70 73 72 69 63 55 58 53 51 48 61 60 52 34 34 49 66 100 93 99 97 96 90 82 79 75 72 66 59 52 46 39 40 43
7 4 11 4 12 8 8 22 10 44 26 52 76 74 61 57 61 62 60 52 50 51 55 59 52 51 58 67 38 31 60 28 75 95 101 103 101 97 90 84 80 76 71 65 60 55 49 43 45
14 10 17 20 10 6 5 37 12 56 72 66 48 36 50 55 44 41 41 41 44 51 55 52 50 47 55 63 55 29 36 41 49 83 88 110 103 101 96 90 84 80 73 69 65 61 56 51 47
16 13 18 29 12 21 38 48 42 53 44 31 24 41 57 62 61 51 45 41 45 51 54 55 52 54 47 58 73 44 31 43 49 49 81 108 100 98 96 94 89 83 77 70 67 66 63 56 52
10 15 32 38 30 14 21 43 44 43 15 26 32 41 51 60 72 60 50 44 43 49 52 55 52 52 46 49 70 64 39 40 41 41 60 82 91 88 108 95 93 83 81 73 70 65 65 62 59
10 25 22 23 5 38 24 48 32 11 17 27 35 52 57 67 82 77 63 49 43 40 45 51 54 44 43 49 61 81 43 44 53 42 24 35 47 37 51 101 92 83 82 74 72 73 68 68 65
8 12 10 29 47 15 14 13 4 1 5 37 50 49 53 49 66 79 72 63 50 38 35 43 48 39 41 43 60 70 76 57 43 33 29 17 24 48 60 36 56 64 47 81 80 70 72 71 74
12 9 25 36 12 6 11 9 7 8 11 25 55 66 65 66 70 70 65 65 57 44 37 37 44 42 32 41 50 58 90 66 43 58 30 26 24 49 53 44 44 70 59 44 56 62 76 73 76
18 36 28 11 6 5 10 2 10 8 15 37 50 62 62 65 68 71 56 54 55 47 35 33 38 44 32 32 46 52 63 77 42 53 43 37 31 32 35 48 53 60 62 69 74 76 75 70 80
15 16 6 6 6 5 6 6 9 3 13 40 43 65 67 70 69 61 47 42 41 36 24 27 32 45 39 24 40 46 54 68 43 52 45 40 36 32 26 50 56 60 62 60 58 47 73 77 81
19 12 9 12 9 8 6 3 15 7 25 32 44 58 67 68 69 66 54 44 33 26 17 8 34 41 48 32 51 38 45 43 58 56 32 36 30 26 31 46 52 62 57 54 55 54 59 79 81
6 9 6 7 8 14 8 8 9 6 46 51 50 52 56 61 66 61 49 39 32 23 9 5 17 42 49 48 43 53 41 54 51 41 51 41 33 23 26 36 47 51 55 53 59 66 73 65 75
10 8 5 5 3 3 7 13 5 13 32 42 50 57 61 63 65 59 45 35 30 23 14 5 14 28 36 47 48 44 47 42 55 56 45 36 34 27 32 36 50 44 35 29 55 52 55 77 59
10 3 8 5 10 13 11 9 8 37 53 46 44 58 64 70 66 55 43 38 29 22 14 9 4 18 32 33 38 42 42 40 44 51 47 41 25 24 23 17 38 25 21 20 26 38 40 44 42
8 7 4 1 6 6 10 9 7 23 35 38 39 57 58 59 59 51 43 36 30 21 13 10 7 3 18 24 27 32 32 41 36 45 50 38 22 28 35 38 29 32 28 24 15 13 10 16 25
9 11 7 3 8 6 7 9 4 24 28 39 45 54 56 57 53 46 40 36 29 25 18 12 9 5 8 15 17 21 26 24 34 40 40 31 33 36 37 40 36 26 17 23 24 19 31 39 41
Wind_Direction_500mb
229 164 148 147 85 72 238 248 191 216 229 130 318 296 261 261 196 227 335 352 268 241 198 198 196 194 192 191 191 190 193 196 196 191 192 181 178 187 186 189 199 209 197 190 181 187 174 165 164
150 146 140 111 106 152 249 239 218 217 279 310 303 338 268 277 314 329 318 298 291 219 218 204 199 198 196 195 194 194 197 199 201 202 198 185 180 188 192 201 205 209 211 192 191 193 190 173 172
149 152 135 108 139 202 222 241 6 313 315 335 324 244 336 294 323 345 334 316 259 217 216 210 207 203 200 199 199 199 201 202 203 203 205 198 188 186 196 198 197 180 176 174 185 194 182 180 185
146 139 81 129 212 247 214 34 347 335 133 35 352 284 108 40 35 356 333 313 237 231 222 213 216 210 206 204 204 204 206 205 205 204 204 200 194 191 189 180 175 169 189 183 175 193 199 186 190
151 114 81 168 248 270 267 350 336 341 334 4 360 303 295 235 17 341 333 307 268 234 236 223 216 219 212 209 209 209 209 209 208 208 204 198 190 185 180 181 180 186 208 205 191 191 188 183 189
103 105 112 220 235 254 38 351 342 355 297 325 351 315 269 236 307 332 344 344 276 251 243 231 222 220 221 215 214 214 213 212 210 209 206 199 192 193 191 192 196 196 190 182 186 185 179 168 176
115 107 214 201 238 296 3 356 31 319 306 323 327 272 261 263 312 322 317 337 333 258 233 238 230 225 227 225 219 218 217 215 213 211 208 204 201 201 201 203 204 202 195 184 194 190 188 180 190
79 81 149 241 188 255 7 354 335 313 304 310 302 248 285 285 306 305 306 301 318 281 244 230 240 233 230 229 228 222 220 218 216 214 210 210 209 208 207 209 203 197 198 193 194 191 191 192 198
77 71 239 255 171 298 333 358 317 305 288 299 268 267 281 296 300 296 294 283 276 299 277 251 240 244 236 232 231 228 224 220 218 216 214 213 213 209 211 209 205 204 207 195 198 193 196 201 203
66 110 227 215 234 270 302 303 307 301 292 278 283 292 300 304 308 305 295 294 285 283 278 288 256 249 242 237 233 231 228 222 218 217 215 213 213 214 214 210 210 209 209 201 202 200 200 206 207
360 187 171 269 284 305 291 291 215 251 267 261 275 298 304 306 310 307 299 296 290 290 281 286 278 265 244 244 242 235 228 226 222 220 217 215 214 214 215 211 211 212 213 212 208 194 199 203 208
335 260 230 277 285 309 286 284 264 243 258 286 288 293 298 303 306 310 310 302 297 289 284 279 279 273 255 257 254 244 234 227 224 221 219 217 215 214 214 213 212 210 212 211 208 199 200 202 208
183 260 280 290 296 286 279 254 251 268 286 299 299 298 299 302 301 302 304 303 306 294 291 274 273 271 268 254 250 254 242 233 225 225 221 219 217 215 214 213 213 212 211 212 209 207 202 207 208
274 291 295 302 298 280 277 266 231 270 301 308 309 316 318 312 309 302 298 296 290 297 294 285 270 265 265 261 257 255 288 235 231 225 225 222 220 218 217 216 215 214 213 212 211 210 208 211 215
293 333 293 244 254 288 305 273 232 307 314 303 320 318 312 311 313 308 305 299 288 276 282 283 282 267 263 254 255 302 274 234 215 227 228 223 221 222 219 219 216 218 215 214 214 213 213 218 222
21 55 350 240 309 270 76 278 332 316 308 311 315 311 319 320 313 306 306 302 290 280 277 273 279 277 260 251 254 269 243 241 228 243 226 226 223 222 220 219 219 219 218 218 217 217 218 219 223
14 285 310 322 218 287 220 292 275 293 293 297 304 335 332 334 334 319 308 295 285 280 274 268 267 276 263 252 253 260 247 257 250 236 221 233 226 223 223 219 219 219 220 221 221 221 223 226 228
300 323 289 299 276 285 287 276 285 292 291 301 4 347 340 335 336 329 322 303 285 275 265 260 257 260 269 257 249 252 251 260 248 263 229 232 232 230 225 219 218 216 218 223 226 226 227 230 234
264 270 279 290 296 296 277 295 294 317 40 47 13 349 338 331 334 331 322 312 292 278 269 257 255 255 269 266 245 242 277 282 283 302 237 216 235 240 228 223 213 218 220 221 227 232 230 231 234
252 285 285 290 263 320 308 297 309 107 78 44 7 354 341 333 334 332 326 317 304 291 273 254 249 250 257 264 247 237 263 286 286 295 287 247 220 214 218 212 215 222 220 221 228 229 233 235 233
268 241 276 293 325 300 333 312 190 3 114 0 352 342 336 328 326 328 328 322 312 297 282 260 242 241 252 258 247 246 240 283 285 280 280 238 228 228 234 250 224 220 240 234 222 228 236 240 237
315 229 306 304 338 295 57 286 252 327 322 347 342 341 335 330 328 328 328 325 318 301 282 254 238 230 245 252 235 243 230 259 292 272 265 259 221 225 226 196 206 230 244 237 234 243 239 239 242
250 310 314 297 174 298 325 315 268 11 340 340 334 334 330 326 326 328 332 326 326 313 273 244 234 216 234 241 228 242 233 229 277 262 254 257 244 243 221 230 220 220 225 230 232 239 240 248 248
307 321 13 61 82 18 232 76 278 348 324 327 336 329 328 327 327 335 335 337 338 333 290 241 225 207 218 237 231 226 229 228 269 275 259 243 240 239 218 230 221 218 236 231 237 258 245 248 254
25 14 348 359 0 247 179 328 253 176 342 337 331 329 326 326 332 339 339 346 352 346 358 269 205 211 217 232 224 234 227 227 245 258 260 239 234 221 225 227 222 230 232 230 239 237 242 248 257
24 104 117 293 314 296 18 231 304 196 347 336 328 325 329 329 336 338 342 345 358 360 21 128 197 208 219 222 222 225 229 211 235 255 237 229 232 230 224 228 222 230 246 248 247 245 250 266 255
304 34 212 244 191 353 277 295 313 311 335 342 341 339 336 335 338 343 349 350 358 3 6 45 186 198 210 220 220 224 231 213 219 226 235 236 231 220 231 240 237 248 261 261 261 247 268 250 250
125 251 8 10 320 304 291 290 265 338 348 343 342 339 336 338 342 348 355 353 358 4 352 348 329 206 208 210 217 223 224 226 218 225 220 222 226 228 242 211 214 222 258 271 262 239 251 247 257
2 3 10 158 250 288 307 288 255 339 350 331 331 331 333 338 348 352 356 358 3 360 355 357 338 232 214 227 231 239 232 233 225 229 222 222 221 216 216 219 215 211 226 233 212 233 228 269 276
165 197 196 227 303 252 262 284 231 349 345 331 332 335 342 352 0 2 3 7 11 8 9 359 344 308 246 247 236 231 221 213 210 217 207 211 205 205 197 191 185 189 197 196 200 225 245 249 252
Wind_Speed_850mb
4 11 20 18 7 5 7 13 2 3 3 5 23 9 8 6 6 5 26 8 14 25 44 55 54 51 50 50 49 47 46 43 42 41 40 37 36 36 38 38 34 24 21 22 33 33 32 35 31
7 20 20 8 8 6 10 6 12 9 8 27 16 7 5 8 11 12 6 8 19 22 36 53 56 54 53 52 50 49 48 45 42 40 39 37 39 37 39 36 30 26 25 28 30 32 33 36 34
14 25 10 7 6 11 10 4 6 17 23 10 9 2 4 6 10 22 31 24 15 26 39 51 55 55 54 54 52 50 49 47 44 41 37 36 36 41 38 33 26 24 20 29 34 34 31 39 40
13 9 9 7 14 11 9 3 13 14 4 20 15 11 4 23 5 26 34 25 16 24 37 52 57 56 55 56 54 52 50 47 44 42 39 36 36 36 35 33 32 30 28 25 26 31 34 36 41
14 7 6 3 9 10 5 5 8 4 7 13 17 12 18 7 18 19 21 15 17 24 35 50 59 57 57 58 57 55 52 49 47 44 41 39 39 36 38 41 42 33 24 23 27 24 27 40 38
6 6 5 8 10 7 2 16 5 8 6 20 9 21 13 9 13 23 22 17 18 23 29 42 58 61 58 57 57 57 55 52 50 47 44 42 41 40 41 44 43 38 31 31 29 31 24 34 35
8 6 7 5 5 6 1 18 4 9 11 8 30 9 12 20 26 45 33 23 21 23 28 37 52 62 62 61 59 58 58 56 53 50 47 45 44 43 43 44 44 43 44 40 35 37 31 37 36
5 6 4 5 5 6 7 20 17 13 10 30 6 10 12 26 64 58 46 37 23 16 16 36 45 61 66 67 65 62 60 59 57 54 54 49 46 44 44 41 41 43 39 38 42 39 40 39 37
4 6 2 4 6 6 11 13 13 14 33 33 24 45 61 71 66 67 61 47 36 21 18 17 33 45 61 71 72 68 65 63 61 58 57 53 50 46 46 43 42 41 35 42 44 43 49 46 39
9 4 6 4 2 5 19 14 26 14 24 40 56 56 47 57 60 58 62 59 59 45 27 22 29 34 48 61 71 75 71 70 69 68 64 62 58 52 50 47 46 41 35 44 46 45 46 47 41
6 6 1 4 4 7 15 21 10 11 22 35 37 56 63 62 52 51 49 51 57 57 50 34 32 37 47 49 65 75 78 76 76 75 73 70 63 57 55 55 52 44 39 40 42 44 48 45 44
5 4 5 11 8 17 13 27 18 41 39 59 64 63 58 49 48 46 50 51 53 60 55 48 38 38 43 50 37 73 81 84 85 83 80 80 72 67 64 65 60 54 48 42 38 44 44 43 43
3 7 11 29 54 40 31 40 24 48 62 42 43 41 48 50 51 50 47 51 53 58 51 51 48 41 41 45 58 41 79 89 90 88 86 85 80 76 72 70 67 60 54 46 41 41 41 43 44
8 22 35 24 26 19 13 17 4 21 40 30 36 44 52 60 63 68 68 70 60 51 53 45 45 51 50 36 42 56 36 102 92 94 93 91 88 82 77 74 71 67 60 52 44 39 39 41 42
7 10 12 5 6 10 12 18 14 31 39 47 41 69 71 70 73 72 69 63 55 58 53 51 48 61 60 52 34 34 49 66 100 93 99 97 96 90 82 79 75 72 66 59 52 46 39 40 43
7 4 11 4 12 8 8 22 10 44 26 52 76 74 61 57 61 62 60 52 50 51 55 59 52 51 58 67 38 31 60 28 75 95 101 103 101 97 90 84 80 76 71 65 60 55 49 43 45
14 10 17 20 10 6 5 37 12 56 72 66 48 36 50 55 44 41 41 41 44 51 55 52 50 47 55 63 55 29 36 41 49 83 88 110 103 101 96 90 84 80 73 69 65 61 56 51 47
16 13 18 29 12 21 38 48 42 53 44 31 24 41 57 62 61 51 45 41 45 51 54 55 52 54 47 58 73 44 31 43 49 49 81 108 100 98 96 94 89 83 77 70 67 66 63 56 52
10 15 32 38 30 14 21 43 44 43 15 26 32 41 51 60 72 60 50 44 43 49 52 55 52 52 46 49 70 64 39 40 41 41 60 82 91 88 108 95 93 83 81 73 70 65 65 62 59
10 25 22 23 5 38 24 48 32 11 17 27 35 52 57 67 82 77 63 49 43 40 45 51 54 44 43 49 61 81 43 44 53 42 24 35 47 37 51 101 92 83 82 74 72 73 68 68 65
8 12 10 29 47 15 14 13 4 1 5 37 50 49 53 49 66 79 72 63 50 38 35 43 48 39 41 43 60 70 76 57 43 33 29 17 24 48 60 36 56 64 47 81 80 70 72 71 74
12 9 25 36 12 6 11 9 7 8 11 25 55 66 65 66 70 70 65 65 57 44 37 37 44 42 32 41 50 58 90 66 43 58 30 26 24 49 53 44 44 70 59 44 56 62 76 73 76
18 36 28 11 6 5 10 2 10 8 15 37 50 62 62 65 68 71 56 54 55 47 35 33 38 44 32 32 46 52 63 77 42 53 43 37 31 32 35 48 53 60 62 69 74 76 75 70 80
15 16 6 6 6 5 6 6 9 3 13 40 43 65 67 70 69 61 47 42 41 36 24 27 32 45 39 24 40 46 54 68 43 52 45 40 36 32 26 50 56 60 62 60 58 47 73 77 81
19 12 9 12 9 8 6 3 15 7 25 32 44 58 67 68 69 66 54 44 33 26 17 8 34 41 48 32 51 38 45 43 58 56 32 36 30 26 31 46 52 62 57 54 55 54 59 79 81
6 9 6 7 8 14 8 8 9 6 46 51 50 52 56 61 66 61 49 39 32 23 9 5 17 42 49 48 43 53 41 54 51 41 51 41 33 23 26 36 47 51 55 53 59 66 73 65 75
10 8 5 5 3 3 7 13 5 13 32 42 50 57 61 63 65 59 45 35 30 23 14 5 14 28 36 47 48 44 47 42 55 56 45 36 34 27 32 36 50 44 35 29 55 52 55 77 59
10 3 8 5 10 13 11 9 8 37 53 46 44 58 64 70 66 55 43 38 29 22 14 9 4 18 32 33 38 42 42 40 44 51 47 41 25 24 23 17 38 25 21 20 26 38 40 44 42
8 7 4 1 6 6 10 9 7 23 35 38 39 57 58 59 59 51 43 36 30 21 13 10 7 3 18 24 27 32 32 41 36 45 50 38 22 28 35 38 29 32 28 24 15 13 10 16 25
9 11 7 3 8 6 7 9 4 24 28 39 45 54 56 57 53 46 40 36 29 25 18 12 9 5 8 15 17 21 26 24 34 40 40 31 33 36 37 40 36 26 17 23 24 19 31 39 41
Wind_Direction_850mb
229 164 148 147 85 72 238 248 191 216 229 130 318 296 261 261 196 227 335 352 268 241 198 198 196 194 192 191 191 190 193 196 196 191 192 181 178 187 186 189 199 209 197 190 181 187 174 165 164
150 146 140 111 106 152 249 239 218 217 279 310 303 338 268 277 314 329 318 298 291 219 218 204 199 198 196 195 194 194 197 199 201 202 198 185 180 188 192 201 205 209 211 192 191 193 190 173 172
149 152 135 108 139 202 222 241 6 313 315 335 324 244 336 294 323 345 334 316 259 217 216 210 207 203 200 199 199 199 201 202 203 203 205 198 188 186 196 198 197 180 176 174 185 194 182 180 185
146 139 81 129 212 247 214 34 347 335 133 35 352 284 108 40 35 356 333 313 237 231 222 213 216 210 206 204 204 204 206 205 205 204 204 200 194 191 189 180 175 169 189 183 175 193 199 186 190
151 114 81 168 248 270 267 350 336 341 334 4 360 303 295 235 17 341 333 307 268 234 236 223 216 219 212 209 209 209 209 209 208 208 204 198 190 185 180 181 180 186 208 205 191 191 188 183 189
103 105 112 220 235 254 38 351 342 355 297 325 351 315 269 236 307 332 344 344 276 251 243 231 222 220 221 215 214 214 213 212 210 209 206 199 192 193 191 192 196 196 190 182 186 185 179 168 176
115 107 214 201 238 296 3 356 31 319 306 323 327 272 261 263 312 322 317 337 333 258 233 238 230 225 227 225 219 218 217 215 213 211 208 204 201 201 201 203 204 202 195 184 194 190 188 180 190
79 81 149 241 188 255 7 354 335 313 304 310 302 248 285 285 306 305 306 301 318 281 244 230 240 233 230 229 228 222 220 218 216 214 210 210 209 208 207 209 203 197 198 193 194 191 191 192 198
77 71 239 255 171 298 333 358 317 305 288 299 268 267 281 296 300 296 294 283 276 299 277 251 240 244 236 232 231 228 224 220 218 216 214 213 213 209 211 209 205 204 207 195 198 193 196 201 203
66 110 227 215 234 270 302 303 307 301 292 278 283 292 300 304 308 305 295 294 285 283 278 288 256 249 242 237 233 231 228 222 218 217 215 213 213 214 214 210 210 209 209 201 202 200 200 206 207
360 187 171 269 284 305 291 291 215 251 267 261 275 298 304 306 310 307 299 296 290 290 281 286 278 265 244 244 242 235 228 226 222 220 217 215 214 214 215 211 211 212 213 212 208 194 199 203 208
335 260 230 277 285 309 286 284 264 243 258 286 288 293 298 303 306 310 310 302 297 289 284 279 279 273 255 257 254 244 234 227 224 221 219 217 215 214 214 213 212 210 212 211 208 199 200 202 208
183 260 280 290 296 286 279 254 251 268 286 299 299 298 299 302 301 302 304 303 306 294 291 274 273 271 268 254 250 254 242 233 225 225 221 219 217 215 214 213 213 212 211 212 209 207 202 207 208
274 291 295 302 298 280 277 266 231 270 301 308 309 316 318 312 309 302 298 296 290 297 294 285 270 265 265 261 257 255 288 235 231 225 225 222 220 218 217 216 215 214 213 212 211 210 208 211 215
293 333 293 244 254 288 305 273 232 307 314 303 320 318 312 311 313 308 305 299 288 276 282 283 282 267 263 254 255 302 274 234 215 227 228 223 221 222 219 219 216 218 215 214 214 213 213 218 222
21 55 350 240 309 270 76 278 332 316 308 311 315 311 319 320 313 306 306 302 290 280 277 273 279 277 260 251 254 269 243 241 228 243 226 226 223 222 220 219 219 219 218 218 217 217 218 219 223
14 285 310 322 218 287 220 292 275 293 293 297 304 335 332 334 334 319 308 295 285 280 274 268 267 276 263 252 253 260 247 257 250 236 221 233 226 223 223 219 219 219 220 221 221 221 223 226 228
300 323 289 299 276 285 287 276 285 292 291 301 4 347 340 335 336 329 322 303 285 275 265 260 257 260 269 257 249 252 251 260 248 263 229 232 232 230 225 219 218 216 218 223 226 226 227 230 234
264 270 279 290 296 296 277 295 294 317 40 47 13 349 338 331 334 331 322 312 292 278 269 257 255 255 269 266 245 242 277 282 283 302 237 216 235 240 228 223 213 218 220 221 227 232 230 231 234
252 285 285 290 263 320 308 297 309 107 78 44 7 354 341 333 334 332 326 317 304 291 273 254 249 250 257 264 247 237 263 286 286 295 287 247 220 214 218 212 215 222 220 221 228 229 233 235 233
268 241 276 293 325 300 333 312 190 3 114 0 352 342 336 328 326 328 328 322 312 297 282 260 242 241 252 258 247 246 240 283 285 280 280 238 228 228 234 250 224 220 240 234 222 228 236 240 237
315 229 306 304 338 295 57 286 252 327 322 347 342 341 335 330 328 328 328 325 318 301 282 254 238 230 245 252 235 243 230 259 292 272 265 259 221 225 226 196 206 230 244 237 234 243 239 239 242
250 310 314 297 174 298 325 315 268 11 340 340 334 334 330 326 326 328 332 326 326 313 273 244 234 216 234 241 228 242 233 229 277 262 254 257 244 243 221 230 220 220 225 230 232 239 240 248 248
307 321 13 61 82 18 232 76 278 348 324 327 336 329 328 327 327 335 335 337 338 333 290 241 225 207 218 237 231 226 229 228 269 275 259 243 240 239 218 230 221 218 236 231 237 258 245 248 254
25 14 348 359 0 247 179 328 253 176 342 337 331 329 326 326 332 339 339 346 352 346 358 269 205 211 217 232 224 234 227 227 245 258 260 239 234 221 225 227 222 230 232 230 239 237 242 248 257
24 104 117 293 314 296 18 231 304 196 347 336 328 325 329 329 336 338 342 345 358 360 21 128 197 208 219 222 222 225 229 211 235 255 237 229 232 230 224 228 222 230 246 248 247 245 250 266 255
304 34 212 244 191 353 277 295 313 311 335 342 341 339 336 335 338 343 349 350 358 3 6 45 186 198 210 220 220 224 231 213 219 226 235 236 231 220 231 240 237 248 261 261 261 247 268 250 250
125 251 8 10 320 304 291 290 265 338 348 343 342 339 336 338 342 348 355 353 358 4 352 348 329 206 208 210 217 223 224 226 218 225 220 222 226 228 242 211 214 222 258 271 262 239 251 247 257
2 3 10 158 250 288 307 288 255 339 350 331 331 331 333 338 348 352 356 358 3 360 355 357 338 232 214 227 231 239 232 233 225 229 222 222 221 216 216 219 215 211 226 233 212 233 228 269 276
165 197 196 227 303 252 262 284 231 349 345 331 332 335 342 352 0 2 3 7 11 8 9 359 344 308 246 247 236 231 221 213 210 217 207 211 205 205 197 191 185 189 197 196 200 225 245 249 252